Tracking 28790 objects as of 18-Apr-2024
HD Live streaming from Space Station
objects crossing your sky now

SECOR 9 (EGRS 9)

Track SECOR 9 (EGRS 9) now!
10-day predictions
SECOR 9 (EGRS 9) is classified as:


NORAD ID: 2861
Int'l Code: 1967-065A
Perigee: 3,802.9 km
Apogee: 3,954.1 km
Inclination: 90.0 °
Period: 172.1 minutes
Semi major axis: 10249 km
RCS: 0.3898 m2 (medium)
Launch date: June 29, 1967
Source: United States (US)
Launch site: AIR FORCE WESTERN TEST RANGE (AFWTR)
Your satellite tracking list
Your tracking list is empty




NASA's NSSDC Master Catalog

Two Line Element Set (TLE):
1 02861U 67065A   24109.48775657  .00000016  00000-0  91917-2 0  9992
2 02861  90.0295 314.0524 0073758 131.4717 229.2482  8.36660030735003
Source of the keplerian elements: AFSPC